GW2455 Weather Reports


Display with metric or nautical units.
time (UTC)temp
F
wind
direction
speed
MPH
gust
MPH
rain 1hr
in
rain 24hr
in
rain mn
in
humidity
%
barometer
mb
20260507115901 60 320 18.0 32.0 0.00 0.60 0.02 74 1013.2
20260507115400 60 347 22.0 32.0 0.00 0.60 0.02 73 1013.2
20260507114859 60 353 19.0 28.0 0.00 0.60 0.02 74 1013.3
20260507114722 60 333 18.0 28.0 0.00 0.60 0.02 74 1013.2
20260507113857 60 351 14.0 31.0 0.00 0.60 0.02 78 1013.3
20260507113402 59 333 21.0 31.0 0.00 0.60 0.02 78 1013.3
20260507112857 59 318 13.0 30.0 0.00 0.60 0.02 80 1013.3
20260507112355 59 4 20.0 30.0 0.00 0.60 0.02 78 1013.4
20260507111856 58 353 15.0 28.0 0.00 0.60 0.02 81 1013.5
20260507111359 58 322 15.0 28.0 0.00 0.60 0.02 80 1013.5
20260507110900 59 292 14.0 24.0 0.00 0.60 0.02 79 1013.3
20260507110735 59 330 16.0 24.0 0.00 0.60 0.02 77 1013.4
20260507105852 59 323 15.0 21.0 0.00 0.60 0.02 75 1013.5
20260507105352 59 318 11.0 21.0 0.00 0.60 0.02 73 1013.4
20260507105214 60 288 10.0 27.0 0.00 0.60 0.02 71 1013.3
20260507104353 60 344 11.0 29.0 0.00 0.60 0.02 72 1013.5
20260507103854 60 333 7.0 29.0 0.00 0.60 0.02 72 1013.3
20260507103352 60 8 10.0 23.0 0.00 0.60 0.02 72 1013.3
20260507102852 60 323 15.0 31.0 0.00 0.60 0.02 71 1013.3
20260507102353 60 333 19.0 31.0 0.00 0.60 0.02 70 1013.4
20260507101853 60 328 12.0 23.0 0.00 0.60 0.02 72 1013.5
20260507101353 59 328 10.0 22.0 0.00 0.60 0.02 74 1013.6
20260507100848 59 312 6.0 23.0 0.00 0.60 0.02 76 1013.4
20260507100349 59 332 13.0 23.0 0.00 0.60 0.02 76 1013.5
20260507100220 59 320 12.0 23.0 0.00 0.60 0.02 75 1013.6
20260507095345 59 354 16.0 23.0 0.00 0.60 0.02 73 1013.7
20260507094840 59 354 8.0 15.0 0.00 0.60 0.02 71 1013.8
20260507094712 59 112 3.0 19.0 0.00 0.60 0.02 73 1013.6
20260507093940 59 267 3.0 19.0 0.00 0.60 0.02 72 1013.7
20260507092831 59 3 7.0 13.0 0.00 0.60 0.02 71 1013.6
20260507092330 59 34 5.0 11.0 0.00 0.60 0.02 71 1013.6
20260507091831 60 247 4.0 19.0 0.00 0.60 0.02 71 1013.6
20260507091328 60 148 11.0 19.0 0.00 0.60 0.02 71 1013.5
20260507090832 59 151 7.0 19.0 0.00 0.60 0.02 72 1013.5
20260507090329 60 108 9.0 19.0 0.00 0.60 0.02 72 1013.6
20260507085827 60 155 12.0 18.0 0.00 0.60 0.02 72 1013.5
20260507085323 59 157 11.0 17.0 0.00 0.60 0.02 73 1013.8
20260507084826 59 172 12.0 17.0 0.00 0.60 0.02 73 1013.5
20260507084323 59 154 13.0 17.0 0.00 0.60 0.02 74 1013.6
20260507083819 59 141 7.0 11.0 0.00 0.60 0.02 74 1013.6
20260507083317 59 309 5.0 11.0 0.00 0.60 0.02 74 1013.8
20260507082813 59 189 6.0 11.0 0.00 0.60 0.02 74 1013.8
20260507082309 59 130 6.0 9.0 0.00 0.60 0.02 76 1013.8
20260507082137 59 189 1.0 13.0 0.00 0.60 0.02 75 1014.1
20260507081306 59 222 4.0 13.0 0.00 0.60 0.02 75 1014.0
20260507080806 59 191 8.0 13.0 0.00 0.60 0.02 76 1014.0
20260507080305 59 182 8.0 13.0 0.00 0.60 0.02 73 1014.0
20260507075805 59 254 8.0 13.0 0.00 0.60 0.02 74 1014.0
20260507075306 58 199 3.0 10.0 0.00 0.60 0.02 74 1013.9
20260507074806 58 144 5.0 10.0 0.00 0.60 0.02 74 1013.9
20260507074635 58 98 4.0 10.0 0.00 0.60 0.02 74 1014.0
20260507073808 58 187 6.0 14.0 0.00 0.60 0.02 74 1014.1
20260507073307 58 187 6.0 14.0 0.00 0.60 0.02 74 1014.0
20260507072806 58 140 6.0 13.0 0.00 0.60 0.02 74 1014.0
20260507072308 58 116 8.0 13.0 0.00 0.60 0.02 74 1014.0
20260507071807 58 155 5.0 13.0 0.00 0.60 0.02 73 1014.1
20260507071629 58 146 5.0 13.0 0.00 0.60 0.02 72 1014.1
20260507070806 58 141 2.0 7.0 0.00 0.60 0.02 73 1014.0
20260507070305 58 244 4.0 16.0 0.00 0.60 0.02 73 1014.1
20260507065802 58 163 9.0 16.0 0.00 0.60 0.02 73 1014.2
20260507065305 58 177 6.0 13.0 0.00 0.60 0.02 71 1014.1
20260507064802 58 184 8.0 13.0 0.00 0.60 0.02 71 1014.1
20260507064300 58 106 10.0 12.0 0.00 0.60 0.02 71 1014.0
20260507063759 58 202 2.0 12.0 0.00 0.60 0.02 72 1014.0
20260507063257 58 68 7.0 20.0 0.00 0.60 0.02 71 1014.0
20260507062750 58 347 9.0 20.0 0.00 0.60 0.02 72 1014.2
20260507062247 58 98 9.0 14.0 0.00 0.60 0.02 73 1014.0
20260507061854 58 55 5.0 13.0 0.00 0.60 0.02 71 1014.3
20260507060746 58 160 7.0 32.0 0.00 0.60 0.02 71 1014.1
20260507060240 58 123 6.0 18.0 0.00 0.60 0.02 72 1014.2
20260507055739 58 47 4.0 20.0 0.00 0.60 0.02 73 1014.4
20260507055240 58 62 12.0 20.0 0.00 0.60 0.02 74 1014.1
20260507054737 58 139 4.0 16.0 0.00 0.60 0.02 73 1014.2
20260507054348 58 226 11.0 17.0 0.00 0.60 0.02 75 1014.1
20260507053604 58 165 10.0 17.0 0.00 0.60 0.02 74 1014.2
20260507053104 58 179 7.0 19.0 0.00 0.60 0.02 73 1014.6
20260507052241 58 178 13.0 19.0 0.00 0.60 0.02 73 1014.3
20260507051735 58 171 6.0 17.0 0.00 0.60 0.02 74 1014.6
20260507051236 58 143 10.0 17.0 0.00 0.60 0.02 74 1014.3
20260507050744 58 163 6.0 16.0 0.00 0.60 0.02 75 1014.7
20260507050616 58 30 5.0 14.0 0.00 0.60 0.02 74 1014.7
20260507050112 58 185 8.0 15.0 0.00 0.60 0.02 75 1014.6
20260507045232 58 170 6.0 15.0 0.00 0.60 0.02 76 1014.7
20260507044735 58 164 9.0 14.0 0.00 0.60 0.02 77 1014.6
20260507044233 58 164 9.0 13.0 0.00 0.60 0.02 77 1014.8
20260507043733 58 187 6.0 12.0 0.00 0.60 0.02 77 1014.8
20260507043234 58 170 2.0 17.0 0.00 0.60 0.02 77 1014.9
20260507042733 58 134 4.0 33.0 0.00 0.60 0.02 77 1015.0
20260507042232 58 119 4.0 33.0 0.00 0.60 0.02 77 1014.9
20260507041734 58 179 6.0 24.0 0.00 0.60 0.02 78 1015.2
20260507041554 58 171 11.0 24.0 0.00 0.60 0.02 77 1014.8
20260507040732 58 179 10.0 15.0 0.00 0.60 0.02 77 1014.9
20260507040233 58 185 5.0 17.0 0.00 0.60 0.02 77 1014.9
20260507040048 58 219 5.0 19.0 0.00 0.60 0.02 77 1014.9
20260507035234 58 172 6.0 19.0 0.00 0.60 0.02 77 1014.7
20260507034733 58 99 3.0 20.0 0.00 0.60 0.02 77 1014.9
20260507034234 58 215 17.0 20.0 0.00 0.60 0.02 78 1014.5
20260507033736 58 151 6.0 21.0 0.00 0.60 0.02 77 1014.9
20260507033553 58 196 6.0 21.0 0.00 0.60 0.02 77 1014.8
20260507032734 58 158 8.0 28.0 0.00 0.60 0.02 77 1014.7
20260507032235 58 108 9.0 28.0 0.00 0.60 0.02 77 1014.9
20260507032054 58 103 5.0 14.0 0.00 0.60 0.02 77 1014.9
20260507031232 58 325 4.0 15.0 0.00 0.60 0.02 77 1014.8
20260507030730 58 206 9.0 16.0 0.00 0.60 0.02 77 1014.4
20260507030227 58 258 8.0 18.0 0.00 0.60 0.02 78 1014.7
20260507025720 58 133 8.0 18.0 0.00 0.60 0.02 77 1014.4
20260507025219 58 172 6.0 10.0 0.00 0.60 0.02 77 1014.6
20260507025042 58 147 6.0 21.0 0.00 0.60 0.02 77 1014.8
20260507024212 58 179 5.0 21.0 0.00 0.60 0.02 77 1014.9
20260507024033 58 174 6.0 18.0 0.00 0.60 0.02 78 1014.8
20260507023536 58 187 11.0 19.0 0.00 0.60 0.02 77 1014.8
20260507022710 58 206 11.0 19.0 0.00 0.60 0.02 78 1015.0
20260507022206 58 141 6.0 12.0 0.00 0.60 0.02 77 1015.0
20260507021704 58 239 7.0 15.0 0.00 0.60 0.02 78 1015.0
20260507021210 58 223 4.0 15.0 0.00 0.60 0.02 79 1015.3
20260507021029 58 260 6.0 12.0 0.00 0.60 0.02 78 1015.2
20260507020206 58 192 9.0 12.0 0.00 0.60 0.02 79 1015.1
20260507015712 58 113 6.0 13.0 0.00 0.60 0.02 80 1015.2
20260507015206 58 82 6.0 14.0 0.01 0.60 0.02 81 1015.0
20260507014704 58 219 6.0 14.0 0.01 0.60 0.02 81 1015.3
20260507014205 58 146 2.0 11.0 0.01 0.60 0.02 82 1015.3
20260507013704 58 74 4.0 11.0 0.01 0.60 0.02 82 1015.3
20260507013204 58 30 5.0 18.0 0.01 0.60 0.02 83 1015.3
20260507012703 58 323 7.0 18.0 0.01 0.60 0.02 83 1015.1
20260507012213 58 333 9.0 18.0 0.01 0.60 0.02 84 1015.0
20260507011731 58 346 6.0 16.0 0.01 0.60 0.02 85 1015.2
20260507010716 58 336 4.0 26.0 0.02 0.60 0.02 87 1015.3
20260507010202 58 8 12.0 26.0 0.02 0.60 0.02 87 1015.3
20260507005700 58 30 15.0 24.0 0.02 0.58 0.02 87 1015.2
20260507005159 58 27 12.0 24.0 0.01 0.58 0.01 88 1015.1
20260507004653 58 21 17.0 32.0 0.01 0.58 0.01 88 1015.2
20260507004144 58 24 17.0 32.0 0.01 0.58 0.01 89 1015.2
20260507003643 58 351 18.0 27.0 0.01 0.58 0.01 90 1015.1
20260507003142 57 329 7.0 19.0 0.01 0.58 0.01 92 1015.2
20260507002639 57 30 14.0 24.0 0.02 0.58 0.01 92 1015.1
20260507002149 57 339 11.0 24.0 0.02 0.58 0.01 93 1015.1
20260507001957 56 354 6.0 16.0 0.02 0.58 0.01 95 1015.2
20260507001138 56 347 5.0 11.0 0.02 0.58 0.00 95 1015.2
20260507000639 55 320 4.0 7.0 0.03 0.58 0.00 96 1015.2
20260507000135 55 344 4.0 7.0 0.04 0.58 0.00 96 1015.0
20260506235637 55 51 3.0 11.0 0.06 0.54 0.58 95 1015.1
20260506235456 55 6 6.0 11.0 0.09 0.54 0.58 96 1015.3
20260506234637 56 31 2.0 7.0 0.12 0.54 0.58 96 1015.5
20260506234134 56 119 2.0 12.0 0.17 0.54 0.58 96 1015.5
20260506233635 56 14 6.0 12.0 0.20 0.54 0.58 96 1015.6
20260506233137 56 242 7.0 12.0 0.23 0.54 0.58 96 1015.6
20260506232634 57 306 8.0 13.0 0.24 0.54 0.57 96 1015.7
20260506232138 57 263 9.0 15.0 0.25 0.54 0.57 96 1015.6
20260506231948 57 257 11.0 16.0 0.26 0.54 0.57 96 1015.7
20260506231135 57 246 9.0 18.0 0.28 0.54 0.56 96 1015.7
20260506230632 57 274 11.0 18.0 0.28 0.54 0.55 96 1015.8
20260506230131 57 264 10.0 17.0 0.28 0.54 0.54 96 1015.8
20260506225940 57 263 11.0 17.0 0.25 0.27 0.52 96 1015.9
20260506225121 57 289 11.0 17.0 0.23 0.27 0.49 96 1015.9
20260506224622 57 258 12.0 17.0 0.20 0.27 0.46 95 1016.1
20260506224120 57 289 10.0 15.0 0.16 0.27 0.42 95 1016.1
20260506223607 57 243 8.0 17.0 0.12 0.27 0.37 95 1016.2
20260506223107 57 220 10.0 17.0 0.10 0.27 0.35 95 1016.3
20260506222608 57 212 11.0 14.0 0.09 0.27 0.34 95 1016.3
20260506222423 57 198 7.0 15.0 0.09 0.27 0.31 95 1016.3
20260506221605 57 246 9.0 15.0 0.09 0.27 0.30 95 1016.4
20260506221100 57 220 10.0 16.0 0.10 0.27 0.28 95 1016.4
20260506220909 57 227 9.0 16.0 0.11 0.27 0.27 95 1016.4
20260506220054 56 189 7.0 13.0 0.12 0.27 0.27 95 1016.5
20260506215555 56 205 8.0 16.0 0.13 0.15 0.27 95 1016.5
20260506215050 56 226 9.0 16.0 0.15 0.15 0.27 94 1016.6
20260506214550 56 178 9.0 15.0 0.16 0.15 0.26 94 1016.7
20260506214049 56 222 10.0 15.0 0.17 0.15 0.26 94 1016.7
20260506213548 56 213 10.0 16.0 0.17 0.15 0.26 94 1016.8
20260506213046 56 225 11.0 16.0 0.17 0.15 0.25 94 1016.9
20260506212546 56 222 9.0 14.0 0.19 0.15 0.24 94 1017.0
20260506212043 56 206 9.0 14.0 0.18 0.15 0.22 93 1017.1
20260506211543 56 215 10.0 14.0 0.17 0.15 0.20 93 1017.2
20260506211041 56 244 8.0 13.0 0.15 0.15 0.18 93 1017.3
20260506210537 56 247 9.0 13.0 0.13 0.15 0.17 92 1017.4
20260506210037 56 260 8.0 17.0 0.12 0.14 0.14 92 1017.4
20260506205534 56 251 11.0 17.0 0.11 0.03 0.13 92 1017.5
20260506205035 56 239 9.0 16.0 0.09 0.03 0.12 91 1017.6
20260506204534 56 281 10.0 19.0 0.08 0.03 0.10 90 1017.5
20260506204037 56 256 14.0 19.0 0.07 0.03 0.09 90 1017.6
20260506203905 56 289 6.0 19.0 0.06 0.03 0.09 90 1017.6
20260506203035 56 263 11.0 19.0 0.06 0.03 0.07 89 1017.6
20260506202534 58 250 9.0 16.0 0.04 0.03 0.05 89 1017.6
20260506202035 58 249 6.0 11.0 0.02 0.03 0.04 89 1017.6
20260506201532 58 240 8.0 11.0 0.02 0.03 0.04 89 1017.6
20260506201034 58 265 6.0 12.0 0.02 0.03 0.03 89 1017.7
20260506200529 58 267 7.0 12.0 0.02 0.03 0.03 89 1017.8
20260506200026 58 251 7.0 13.0 0.03 0.03 0.03 88 1017.9
20260506195851 57 237 6.0 13.0 0.02 0.00 0.02 88 1018.0
20260506195024 58 271 6.0 13.0 0.02 0.00 0.02 88 1018.1
20260506194515 57 278 9.0 14.0 0.02 0.00 0.02 88 1018.1
20260506194418 57 280 8.0 14.0 0.02 0.00 0.02 87 1018.2
20260506193512 57 251 9.0 16.0 0.02 0.00 0.02 87 1018.2
20260506193011 58 268 10.0 16.0 0.02 0.00 0.02 87 1018.3
20260506192510 58 250 11.0 16.0 0.02 0.00 0.02 88 1018.3
20260506192325 57 278 12.0 15.0 0.02 0.00 0.02 88 1018.5
20260506191508 58 274 8.0 12.0 0.02 0.00 0.02 89 1018.5
20260506191007 58 264 7.0 12.0 0.02 0.00 0.01 89 1018.7
20260506190506 58 239 8.0 12.0 0.01 0.00 0.00 89 1018.6
20260506190006 58 273 7.0 11.0 0.00 0.00 0.00 88 1018.7
20260506185506 58 247 7.0 11.0 0.00 0.00 0.00 88 1018.8
20260506185004 58 244 7.0 13.0 0.00 0.00 0.00 88 1019.0
20260506184505 58 226 9.0 16.0 0.00 0.00 0.00 87 1019.1
20260506184001 58 242 11.0 16.0 0.00 0.00 0.00 86 1019.2
20260506183458 58 260 11.0 17.0 0.00 0.00 0.00 85 1019.3
20260506182956 59 251 12.0 17.0 0.00 0.00 0.00 83 1019.4
20260506182452 59 233 10.0 15.0 0.00 0.00 0.00 83 1019.4
20260506181950 59 249 11.0 15.0 0.00 0.00 0.00 83 1019.5
20260506181446 59 239 9.0 15.0 0.00 0.00 0.00 83 1019.5
20260506180943 59 236 9.0 16.0 0.00 0.00 0.00 83 1019.6
20260506180439 59 260 11.0 16.0 0.00 0.00 0.00 83 1019.7
20260506175935 59 261 11.0 15.0 0.00 0.00 0.00 82 1019.7
20260506175436 59 253 10.0 15.0 0.00 0.00 0.00 82 1019.6
20260506174933 59 257 9.0 14.0 0.00 0.00 0.00 82 1019.7
20260506174433 59 246 10.0 14.0 0.00 0.00 0.00 81 1019.8
20260506173933 59 253 11.0 14.0 0.00 0.00 0.00 80 1019.9
20260506173753 60 251 9.0 12.0 0.00 0.00 0.00 80 1019.9
20260506172933 60 244 6.0 11.0 0.00 0.00 0.00 79 1019.9
20260506172433 60 261 7.0 12.0 0.00 0.00 0.00 78 1020.1
20260506171934 60 258 7.0 12.0 0.00 0.00 0.00 78 1020.2
20260506171434 60 273 8.0 12.0 0.00 0.00 0.00 78 1020.2
20260506170934 60 254 8.0 11.0 0.00 0.00 0.00 78 1020.2
20260506170433 60 253 7.0 12.0 0.00 0.00 0.00 78 1020.3
20260506170249 60 244 9.0 13.0 0.00 0.00 0.00 77 1020.4
20260506165436 60 273 8.0 13.0 0.00 0.00 0.00 77 1020.5
20260506164934 60 257 7.0 11.0 0.00 0.00 0.00 76 1020.5
20260506164433 60 249 7.0 11.0 0.00 0.00 0.00 76 1020.5
20260506164250 60 280 9.0 11.0 0.00 0.00 0.00 76 1020.6
20260506163436 60 253 8.0 11.0 0.00 0.00 0.00 76 1020.6
20260506162934 60 250 8.0 12.0 0.00 0.00 0.00 75 1020.8
20260506162433 61 239 7.0 13.0 0.00 0.00 0.00 76 1020.9
20260506161932 60 242 7.0 13.0 0.00 0.00 0.00 75 1021.0
20260506161431 60 257 9.0 13.0 0.00 0.00 0.00 75 1021.1
20260506161302 60 258 9.0 12.0 0.00 0.00 0.00 74 1021.1
20260506160431 60 234 8.0 11.0 0.00 0.00 0.00 75 1021.2
20260506155930 60 270 8.0 11.0 0.00 0.00 0.00 75 1021.3
20260506155824 60 268 8.0 12.0 0.00 0.00 0.00 75 1021.4
20260506154920 60 250 8.0 12.0 0.00 0.00 0.00 75 1021.4
20260506154417 60 251 8.0 12.0 0.00 0.00 0.00 76 1021.6
20260506153918 60 246 8.0 11.0 0.00 0.00 0.00 76 1021.5
20260506153416 60 249 6.0 10.0 0.00 0.00 0.00 77 1021.7
20260506152914 60 244 6.0 10.0 0.00 0.00 0.00 77 1021.8
20260506152416 60 251 8.0 12.0 0.00 0.00 0.00 77 1021.9
20260506151911 60 247 7.0 12.0 0.00 0.00 0.00 76 1022.0
20260506151410 60 257 9.0 12.0 0.00 0.00 0.00 76 1022.1
20260506150907 61 242 7.0 10.0 0.00 0.00 0.00 77 1022.1
20260506150405 60 249 8.0 10.0 0.00 0.00 0.00 75 1022.1
20260506145906 60 254 8.0 11.0 0.00 0.00 0.00 75 1022.3
20260506145404 60 264 8.0 11.0 0.00 0.00 0.00 76 1022.2
20260506144904 60 273 5.0 11.0 0.00 0.00 0.00 76 1022.3
20260506144405 60 201 7.0 11.0 0.00 0.00 0.00 76 1022.4
20260506143904 60 243 7.0 12.0 0.00 0.00 0.00 75 1022.4
20260506143404 60 275 8.0 12.0 0.00 0.00 0.00 75 1022.5
20260506143236 60 249 7.0 13.0 0.00 0.00 0.00 76 1022.6
20260506142405 60 256 9.0 13.0 0.00 0.00 0.00 76 1022.6
20260506142215 60 236 5.0 11.0 0.00 0.00 0.00 77 1022.7
20260506141404 60 249 7.0 11.0 0.00 0.00 0.00 77 1022.8
20260506140903 60 223 6.0 11.0 0.00 0.00 0.00 77 1022.8
20260506140401 60 240 7.0 12.0 0.00 0.00 0.00 76 1022.8
20260506135859 60 237 7.0 12.0 0.00 0.00 0.00 75 1022.9
20260506135357 60 222 9.0 11.0 0.00 0.00 0.00 76 1023.0
20260506134856 60 233 8.0 11.0 0.00 0.00 0.00 75 1023.1
20260506134357 60 213 7.0 11.0 0.00 0.00 0.00 75 1023.3
20260506133852 60 232 8.0 11.0 0.00 0.00 0.00 75 1023.4
20260506133352 60 210 8.0 11.0 0.00 0.00 0.00 75 1023.4
20260506132855 60 226 7.0 11.0 0.00 0.00 0.00 75 1023.4
20260506132349 60 216 9.0 11.0 0.00 0.00 0.00 74 1023.4
20260506131850 60 219 8.0 11.0 0.00 0.00 0.00 74 1023.5
20260506131722 60 225 8.0 11.0 0.00 0.00 0.00 74 1023.6
20260506131206 60 205 6.0 11.0 0.00 0.00 0.00 74 1023.6
20260506130653 60 223 6.0 11.0 0.00 0.00 0.00 74 1023.7
20260506130200 60 203 7.0 12.0 0.00 0.00 0.00 73 1023.8
20260506125341 60 209 8.0 12.0 0.00 0.00 0.00 73 1023.8
20260506124840 61 219 8.0 12.0 0.00 0.00 0.00 74 1023.9
20260506124339 61 242 8.0 12.0 0.00 0.00 0.00 72 1023.9
20260506124202 61 232 7.0 11.0 0.00 0.00 0.00 73 1024.0
20260506123337 61 227 7.0 11.0 0.00 0.00 0.00 73 1024.0
20260506123153 61 226 8.0 11.0 0.00 0.00 0.00 73 1024.1
20260506122334 61 203 9.0 11.0 0.00 0.00 0.00 72 1024.1
20260506121833 62 212 6.0 9.0 0.00 0.00 0.00 73 1024.1
20260506121333 62 219 4.0 9.0 0.00 0.00 0.00 73 1024.2
20260506121150 61 216 6.0 9.0 0.00 0.00 0.00 74 1024.2